Stations météo

réclame
Mon MeteoGroup
Mte.Calamita, Italie (16197): Température de l'air & dewpoint: 11.07.2018 13:00:00 - 17.07.2018 13:00:00 (CEST)Mte.Calamita, Italie (16197): Vitesse du vent: 11.07.2018 13:00:00 - 17.07.2018 13:00:00 (CEST)Mte.Calamita, Italie (16197): Direction du vent: 11.07.2018 13:00:00 - 17.07.2018 13:00:00 (CEST)Mte.Calamita, Italie (16197): reduced air pressure: 11.07.2018 13:00:00 - 17.07.2018 13:00:00 (CEST)Mte.Calamita, Italie (16197): visibility: 11.07.2018 13:00:00 - 17.07.2018 13:00:00 (CEST)Mte.Calamita, Italie (16197): Ensoleillement: 11.07.2018 13:00:00 - 17.07.2018 13:00:00 (CEST)
Date & Time tt [°C] td [°C] ff [km/h] ff [knt] dd ppp [hPa] vv [km] sd [min]
17.07.2018 13:00:00 24,0 20,0 29 16 NNW - 10 -
17.07.2018 12:00:00 24,0 21,0 29 16 N - 10 -
17.07.2018 11:00:00 23,0 20,2 29 16 NNE 1010,1 20 30
17.07.2018 10:00:00 22,0 20,0 29 16 NNW - 10 -
17.07.2018 09:00:00 21,0 19,0 34 18 NNW - 10 -
17.07.2018 08:00:00 20,4 18,7 29 16 NNW 1009,1 20 0
17.07.2018 07:00:00 20,0 18,0 15 8 NNW - 10 -
17.07.2018 06:00:00 - - - - - - - -
17.07.2018 05:00:00 - - - - - - - -
17.07.2018 04:00:00 - - - - - - - -
17.07.2018 03:00:00 - - - - - - - -
17.07.2018 02:00:00 - - - - - - - -
17.07.2018 01:00:00 - - - - - - - -
17.07.2018 00:00:00 - - - - - - - -
16.07.2018 23:00:00 - - - - - - - -
16.07.2018 22:00:00 - - - - - - - -
16.07.2018 21:00:00 - - - - - - - -
16.07.2018 20:00:00 24,2 22,8 28 15 S 1006,6 9 0
16.07.2018 19:00:00 26,0 23,0 34 18 SSW - 9 -
16.07.2018 18:00:00 26,0 23,0 26 14 SSW - 10 -
16.07.2018 17:00:00 25,6 21,3 28 15 S 1008,4 10 60
16.07.2018 16:00:00 25,0 22,0 28 15 SSE - 10 -
16.07.2018 15:00:00 24,0 23,0 22 12 S - 7 -
16.07.2018 14:00:00 23,8 23,0 29 16 S 1009,9 3,0 0
16.07.2018 13:00:00 23,0 23,0 24 13 SSE - 0,4 -
16.07.2018 12:00:00 23,0 23,0 26 14 SSE - 0,4 -
16.07.2018 11:00:00 23,0 23,0 22 12 SSE 1011,9 3,0 0
16.07.2018 10:00:00 23,0 21,0 13 7 NNE - 10 -
16.07.2018 09:00:00 23,0 20,0 9 5 NE - 10 -
16.07.2018 08:00:00 22,8 17,9 5 3 SSE 1012,8 20 0
16.07.2018 07:00:00 22,0 14,0 13 7 SSE - 10 -
16.07.2018 06:00:00 - - - - - - - -
16.07.2018 05:00:00 - - - - - - - -
16.07.2018 04:00:00 - - - - - - - -
16.07.2018 03:00:00 - - - - - - - -
16.07.2018 02:00:00 - - - - - - - -
16.07.2018 01:00:00 - - - - - - - -
16.07.2018 00:00:00 - - - - - - - -
15.07.2018 23:00:00 - - - - - - - -
15.07.2018 22:00:00 - - - - - - - -
15.07.2018 21:00:00 - - - - - - - -
15.07.2018 20:00:00 26,4 22,7 5 3 WNW 1012,5 20 12
15.07.2018 19:00:00 28,0 22,0 2 1 N - 10 -
15.07.2018 18:00:00 28,0 22,0 4 2 W - 10 -
15.07.2018 17:00:00 29,2 21,2 2 1 NNW 1012,1 20 60
15.07.2018 16:00:00 28,0 23,0 4 2 NNW - 10 -
15.07.2018 15:00:00 28,0 23,0 4 2 NNW - 10 -
15.07.2018 14:00:00 28,0 21,3 4 2 NNW 1013,1 20 60
15.07.2018 13:00:00 28,0 20,0 9 5 N - 10 -
15.07.2018 12:00:00 27,0 21,0 4 2 NNE - 10 -
15.07.2018 11:00:00 25,2 20,0 8 4 NNW 1013,1 20 60
15.07.2018 10:00:00 24,0 21,0 5 3 WNW - 10 -
15.07.2018 09:00:00 23,0 19,0 5 3 N - 10 -
15.07.2018 08:00:00 21,6 20,6 4 2 NNW 1013,0 20 6
15.07.2018 07:00:00 22,0 22,0 8 4 WSW - 10 -
15.07.2018 06:00:00 - - - - - - - -
15.07.2018 05:00:00 - - - - - - - -
15.07.2018 04:00:00 - - - - - - - -
15.07.2018 03:00:00 - - - - - - - -
15.07.2018 02:00:00 - - - - - - - -
15.07.2018 01:00:00 - - - - - - - -
15.07.2018 00:00:00 - - - - - - - -
14.07.2018 23:00:00 - - - - - - - -
14.07.2018 22:00:00 - - - - - - - -
14.07.2018 21:00:00 - - - - - - - -
14.07.2018 20:00:00 26,8 15,5 8 4 SSW 1012,4 20 12
14.07.2018 19:00:00 27,0 16,0 9 5 SSW - 10 -
14.07.2018 18:00:00 27,0 18,0 15 8 W - 10 -
14.07.2018 17:00:00 26,6 18,2 15 8 WSW 1013,5 20 60
14.07.2018 16:00:00 27,0 18,0 13 7 W - 10 -
14.07.2018 15:00:00 26,0 16,0 11 6 SSW - 10 -
14.07.2018 14:00:00 27,2 16,5 9 5 SSW 1014,4 20 60
14.07.2018 13:00:00 27,0 15,0 8 4 S - 10 -
14.07.2018 12:00:00 27,0 15,0 5 3 S - 10 -
14.07.2018 11:00:00 26,0 15,1 5 3 S 1015,5 25 60
14.07.2018 10:00:00 25,0 15,0 8 4 SSW - 10 -
14.07.2018 09:00:00 24,0 13,0 9 5 ENE - 10 -
14.07.2018 08:00:00 22,0 12,3 9 5 ENE 1015,4 20 0
14.07.2018 07:00:00 22,0 13,0 13 7 ENE - 10 -
14.07.2018 06:00:00 - - - - - - - -
14.07.2018 05:00:00 - - - - - - - -
14.07.2018 04:00:00 - - - - - - - -
14.07.2018 03:00:00 - - - - - - - -
14.07.2018 02:00:00 - - - - - - - -
14.07.2018 01:00:00 - - - - - - - -
14.07.2018 00:00:00 - - - - - - - -
13.07.2018 23:00:00 - - - - - - - -
13.07.2018 22:00:00 - - - - - - - -
13.07.2018 21:00:00 - - - - - - - -
13.07.2018 20:00:00 25,4 16,5 5 3 SSW 1015,0 25 0
13.07.2018 19:00:00 25,0 19,0 4 2 WSW - 10 -
13.07.2018 18:00:00 26,0 20,0 9 5 S - 10 -
13.07.2018 17:00:00 27,0 21,5 5 3 SSW 1015,6 25 60
13.07.2018 16:00:00 27,0 20,0 8 4 WSW - 10 -
13.07.2018 15:00:00 26,0 19,0 8 4 WSW - 10 -
13.07.2018 14:00:00 26,2 18,1 8 4 WSW 1015,7 20 60
13.07.2018 13:00:00 25,0 18,0 0 0 N - 10 -
13.07.2018 12:00:00 25,0 19,0 11 6 SW - 10 -
13.07.2018 11:00:00 23,0 18,3 8 4 S 1016,1 20 60
13.07.2018 10:00:00 22,0 19,0 4 2 S - 10 -
13.07.2018 09:00:00 21,0 19,0 4 2 NNE - 10 -
13.07.2018 08:00:00 20,6 19,8 0 0 N 1015,7 30 60
13.07.2018 07:00:00 20,0 20,0 0 0 N - 10 -
13.07.2018 06:00:00 - - - - - - - -
13.07.2018 05:00:00 - - - - - - - -
13.07.2018 04:00:00 - - - - - - - -
13.07.2018 03:00:00 - - - - - - - -
13.07.2018 02:00:00 - - - - - - - -
13.07.2018 01:00:00 - - - - - - - -
13.07.2018 00:00:00 - - - - - - - -
12.07.2018 23:00:00 - - - - - - - -
12.07.2018 22:00:00 - - - - - - - -
12.07.2018 21:00:00 - - - - - - - -
12.07.2018 20:00:00 26,0 17,9 0 0 N 1013,6 30 60
12.07.2018 19:00:00 26,0 18,0 4 2 SSE - 10 -
12.07.2018 18:00:00 - - - - - - - -
12.07.2018 17:00:00 26,0 18,4 0 0 N 1013,8 30 60
12.07.2018 16:00:00 26,0 19,0 0 0 N - 10 -
12.07.2018 15:00:00 26,0 18,0 0 0 N - 10 -
12.07.2018 14:00:00 25,8 17,7 0 0 N 1014,1 30 60
12.07.2018 13:00:00 25,0 17,0 0 0 N - 10 -
12.07.2018 12:00:00 25,0 18,0 0 0 N - 10 -
12.07.2018 11:00:00 23,0 15,8 0 0 N 1013,6 30 60
12.07.2018 10:00:00 22,0 17,0 0 0 N - 10 -
12.07.2018 09:00:00 20,0 17,0 9 5 ENE - 10 -
12.07.2018 08:00:00 19,4 17,4 8 4 ENE 1013,1 30 48
12.07.2018 07:00:00 19,0 18,0 8 4 NE - 10 -
12.07.2018 06:00:00 - - - - - - - -
12.07.2018 05:00:00 - - - - - - - -
12.07.2018 04:00:00 - - - - - - - -
12.07.2018 03:00:00 - - - - - - - -
12.07.2018 02:00:00 - - - - - - - -
12.07.2018 01:00:00 - - - - - - - -
12.07.2018 00:00:00 - - - - - - - -
11.07.2018 23:00:00 - - - - - - - -
11.07.2018 22:00:00 - - - - - - - -
11.07.2018 21:00:00 - - - - - - - -
11.07.2018 20:00:00 25,0 23,1 0 0 N 1009,6 30 48
11.07.2018 19:00:00 25,0 22,0 4 2 NE - 10 -
11.07.2018 18:00:00 25,0 22,0 8 4 SE - 10 -
11.07.2018 17:00:00 25,0 21,9 5 3 NE 1009,5 30 60
11.07.2018 16:00:00 25,0 22,0 13 7 SSE - 10 -
11.07.2018 15:00:00 25,0 21,0 11 6 SSE - 10 -
11.07.2018 14:00:00 25,8 21,7 15 8 S 1009,6 30 60
11.07.2018 13:00:00 25,0 19,0 4 2 SSE - 10 -

tt = Température de l'air
td = dewpoint
ff = Vitesse du vent
dd = Direction du vent
ppp = reduced air pressure
vv = visibility
sd = Ensoleillement

stations d'obs. à proximité